Location: ?????????
(41.2393°N, 22.9479°E)
Time: 22:15:16
(UTC+00:00)

Cosmos 540 Rocket - Pass Details

Date: 17 November 2025
Orbit: 735 x 747 km, 74.1° (Epoch: 11 December)

Event Time Altitude Azimuth Distance (km) Brightness Sun altitude
Rises 15:43:56 0° 347° (NNW) 3,197 6.6 -7.2°
Reaches altitude 10° 15:46:28 10° 356° (N) 2,267 5.8 -7.7°
Maximum altitude 15:51:15 38° 64° (ENE) 1,119 3.9 -8.5°
Drops below altitude 10° 15:55:59 10° 133° (SE) 2,246 5.6 -9.4°
Sets 15:58:28 0° 141° (SE) 3,162 6.5 -9.8°
